Вернуться в каталог

STARLINK-3893

АктивенСвязьVLEO
NORAD 52579·PAYLOAD·🇺🇸 United States

Запущен May 13, 2022 с Vandenberg Space Force Base

Loading…

Ближайшие Пролёты (ближайшие 24 часа)

TLE

СвежийSource: CelesTrak SupGP

Эпоха: Sep 14, 2026, 22:20 UTC

1 52579C 22051AV  26257.93104167  .01347900  00000+0  67232-3 0  2574
2 52579  53.2109 319.6519 0004234   8.0392  93.5235 16.20063510    11

Отслеживайте STARLINK-3893 в реальном времени с AllMySat

Download on the App Store